N6OIM Weather Reports


Display with metric or nautical units.
time (UTC)temp
F
wind
direction
speed
MPH
gust
MPH
rain 1hr
in
rain 24hr
in
rain mn
in
humidity
%
barometer
mb
20260903153827 64 129 0.0 0.0 0.00 0.00 0.00 75 1013.6
20260903153320 64 129 0.0 0.0 0.00 0.00 0.00 76 1013.5
20260903152829 64 132 0.0 0.0 0.00 0.00 0.00 77 1013.7
20260903152317 63 121 0.0 0.0 0.00 0.00 0.00 78 1013.6
20260903151825 63 125 0.0 0.0 0.00 0.00 0.00 78 1013.6
20260903151334 62 122 0.0 0.0 0.00 0.00 0.00 79 1013.6
20260903150821 62 118 0.0 0.0 0.00 0.00 0.00 78 1013.6
20260903150331 62 123 0.0 0.0 0.00 0.00 0.00 79 1013.5
20260903145820 62 123 0.0 0.0 0.00 0.00 0.00 79 1013.6
20260903145330 61 123 0.0 0.0 0.00 0.00 0.00 80 1013.5
20260903144821 61 123 0.0 0.0 0.00 0.00 0.00 80 1013.5
20260903144329 61 123 0.0 0.0 0.00 0.00 0.00 80 1013.5
20260903143817 61 118 0.0 0.0 0.00 0.00 0.00 80 1013.5
20260903143326 61 119 0.0 0.0 0.00 0.00 0.00 80 1013.5
20260903142835 60 118 0.0 0.0 0.00 0.00 0.00 80 1013.5
20260903142325 60 121 0.0 0.0 0.00 0.00 0.00 80 1013.4
20260903141833 60 121 0.0 0.0 0.00 0.00 0.00 80 1013.5
20260903141321 60 119 0.0 0.0 0.00 0.00 0.00 80 1013.4
20260903140831 60 119 0.0 0.0 0.00 0.00 0.00 80 1013.4
20260903140324 60 117 0.0 0.0 0.00 0.00 0.00 80 1013.4
20260903135833 60 119 0.0 0.0 0.00 0.00 0.00 79 1013.4
20260903135322 60 121 0.0 0.0 0.00 0.00 0.00 79 1013.4
20260903134831 60 121 0.0 0.0 0.00 0.00 0.00 79 1013.4
20260903134324 60 121 0.0 0.0 0.00 0.00 0.00 79 1013.4
20260903133833 60 124 0.0 0.0 0.00 0.00 0.00 79 1013.3
20260903133323 60 118 0.0 0.0 0.00 0.00 0.00 79 1013.3
20260903132830 60 119 0.0 0.0 0.00 0.00 0.00 78 1013.3
20260903132324 60 117 0.0 0.0 0.00 0.00 0.00 78 1013.4
20260903131832 61 117 0.0 0.0 0.00 0.00 0.00 78 1013.4
20260903131322 61 117 0.0 0.0 0.00 0.00 0.00 78 1013.4
20260903130830 61 117 0.0 0.0 0.00 0.00 0.00 78 1013.5
20260903130322 61 119 0.0 0.0 0.00 0.00 0.00 78 1013.5
20260903125830 61 118 0.0 0.0 0.00 0.00 0.00 78 1013.5
20260903125318 61 148 0.0 0.0 0.00 0.00 0.00 78 1013.5
20260903124827 61 148 0.0 0.0 0.00 0.00 0.00 78 1013.5
20260903124335 61 148 0.0 0.0 0.00 0.00 0.00 78 1013.4
20260903123828 61 153 0.0 0.0 0.00 0.00 0.00 78 1013.3
20260903123317 61 153 0.0 0.0 0.00 0.00 0.00 78 1013.3
20260903122825 61 132 0.0 0.0 0.00 0.00 0.00 78 1013.4
20260903122333 61 132 0.0 0.0 0.00 0.00 0.00 78 1013.4
20260903121821 61 130 0.0 0.0 0.00 0.00 0.00 78 1013.4
20260903121331 61 132 0.0 0.0 0.00 0.00 0.00 78 1013.4
20260903120818 61 132 0.0 0.0 0.00 0.00 0.00 78 1013.5
20260903120327 61 132 0.0 0.0 0.00 0.00 0.00 78 1013.5
20260903115818 61 132 0.0 0.0 0.00 0.00 0.00 78 1013.5
20260903115332 61 132 0.0 0.0 0.00 0.00 0.00 78 1013.5
20260903114820 61 132 0.0 0.0 0.00 0.00 0.00 78 1013.6
20260903114334 61 132 0.0 0.0 0.00 0.00 0.00 78 1013.7
20260903113825 61 136 0.0 0.0 0.00 0.00 0.00 78 1013.7
20260903113335 61 135 0.0 0.0 0.00 0.00 0.00 78 1013.7
20260903112823 61 135 0.0 0.0 0.00 0.00 0.00 78 1013.8
20260903112333 61 134 0.0 0.0 0.00 0.00 0.00 78 1013.9
20260903111821 61 136 0.0 0.0 0.00 0.00 0.00 78 1014.0
20260903111314 61 136 0.0 0.0 0.00 0.00 0.00 79 1013.9
20260903110825 61 134 0.0 0.0 0.00 0.00 0.00 79 1013.8
20260903110334 61 133 0.0 0.0 0.00 0.00 0.00 79 1013.9
20260903105822 61 136 0.0 0.0 0.00 0.00 0.00 79 1014.0
20260903105335 61 136 0.0 0.0 0.00 0.00 0.00 79 1013.8
20260903104823 61 136 0.0 0.0 0.00 0.00 0.00 79 1013.9
20260903104334 61 136 0.0 0.0 0.00 0.00 0.00 79 1013.9
20260903103822 61 124 0.0 0.0 0.00 0.00 0.00 78 1013.9
20260903103331 61 123 0.0 0.0 0.00 0.00 0.00 78 1013.9
20260903102824 61 125 0.0 0.0 0.00 0.00 0.00 78 1013.8
20260903102335 61 125 0.0 0.0 0.00 0.00 0.00 78 1013.9
20260903101822 61 125 0.0 0.0 0.00 0.00 0.00 78 1013.7
20260903101332 61 125 0.0 0.0 0.00 0.00 0.00 78 1013.9
20260903100820 61 125 0.0 0.0 0.00 0.00 0.00 78 1013.9
20260903100329 61 124 0.0 0.0 0.00 0.00 0.00 78 1013.8
20260903095819 61 128 0.0 0.0 0.00 0.00 0.00 77 1013.8
20260903095328 61 116 0.0 0.0 0.00 0.00 0.00 77 1013.9
20260903094817 61 147 0.0 0.0 0.00 0.00 0.00 77 1013.8
20260903094330 61 149 0.0 0.0 0.00 0.00 0.00 77 1013.8
20260903093822 61 163 0.0 0.0 0.00 0.00 0.00 77 1013.9
20260903093332 61 141 0.0 0.0 0.00 0.00 0.00 76 1013.9
20260903092820 61 140 0.0 0.0 0.00 0.00 0.00 76 1013.9
20260903092330 62 138 0.0 0.0 0.00 0.00 0.00 76 1014.0
20260903091817 62 139 0.0 0.0 0.00 0.00 0.00 75 1014.0
20260903091326 62 134 0.0 0.0 0.00 0.00 0.00 75 1014.1
20260903090816 62 128 0.0 0.0 0.00 0.00 0.00 75 1014.0
20260903090328 62 123 0.0 0.0 0.00 0.00 0.00 74 1014.0
20260903085820 62 163 0.0 0.0 0.00 0.00 0.00 74 1014.0
20260903085330 62 154 0.0 0.0 0.00 0.00 0.00 73 1014.1
20260903084818 62 152 0.0 0.0 0.00 0.00 0.00 73 1014.1
20260903084328 62 152 0.0 0.0 0.00 0.00 0.00 72 1014.1
20260903083816 62 151 0.0 0.0 0.00 0.00 0.00 72 1014.1
20260903083326 62 152 0.0 0.0 0.00 0.00 0.00 72 1014.1
20260903082815 63 152 0.0 0.0 0.00 0.00 0.00 72 1014.1
20260903082328 63 146 0.0 0.0 0.00 0.00 0.00 71 1014.2
20260903081821 63 146 0.0 0.0 0.00 0.00 0.00 71 1014.1
20260903081331 63 146 0.0 0.0 0.00 0.00 0.00 70 1014.1
20260903080823 63 166 0.0 0.0 0.00 0.00 0.00 70 1014.1
20260903080333 63 144 0.0 0.0 0.00 0.00 0.00 69 1014.1
20260903075821 63 141 0.0 0.0 0.00 0.00 0.00 69 1014.1
20260903075331 63 167 0.0 0.0 0.00 0.00 0.00 68 1014.1
20260903074819 64 167 0.0 0.0 0.00 0.00 0.00 68 1014.0
20260903074332 64 167 0.0 0.0 0.00 0.00 0.00 67 1014.0
20260903073821 64 167 0.0 0.0 0.00 0.00 0.00 66 1014.0
20260903073335 64 168 0.0 0.0 0.00 0.00 0.00 66 1014.1
20260903072823 64 169 0.0 0.0 0.00 0.00 0.00 65 1014.0
20260903072335 64 170 0.0 0.0 0.00 0.00 0.00 65 1014.0
20260903071823 65 169 0.0 0.0 0.00 0.00 0.00 65 1014.0
20260903071335 65 174 0.0 0.0 0.00 0.00 0.00 65 1014.0
20260903070822 65 178 0.0 0.0 0.00 0.00 0.00 64 1014.0
20260903070332 65 178 0.0 0.0 0.00 0.00 0.00 64 1014.0
20260903065819 65 191 0.0 0.0 0.00 0.00 0.00 63 1014.0
20260903065329 65 254 0.0 0.0 0.00 0.00 0.00 63 1014.0
20260903064821 66 257 0.0 0.0 0.00 0.00 0.00 63 1013.9
20260903064331 66 258 0.0 0.0 0.00 0.00 0.00 62 1014.0
20260903063819 66 258 0.0 0.0 0.00 0.00 0.00 62 1014.1
20260903063332 66 258 0.0 0.0 0.00 0.00 0.00 62 1014.0
20260903062820 66 258 0.0 0.0 0.00 0.00 0.00 62 1014.1
20260903062329 66 258 0.0 0.0 0.00 0.00 0.00 62 1014.1
20260903061817 66 257 0.0 0.0 0.00 0.00 0.00 62 1014.1
20260903061325 66 258 0.0 0.0 0.00 0.00 0.00 62 1014.1
20260903060818 66 258 0.0 0.0 0.00 0.00 0.00 62 1014.2
20260903060326 66 258 0.0 0.0 0.00 0.00 0.00 62 1014.1
20260903055817 66 257 0.0 0.0 0.00 0.00 0.00 61 1014.1
20260903055325 66 258 0.0 0.0 0.00 0.00 0.00 61 1014.1
20260903054833 67 257 0.0 0.0 0.00 0.00 0.00 61 1014.1
20260903054321 67 258 0.0 0.0 0.00 0.00 0.00 61 1014.0
20260903053829 67 257 0.0 0.0 0.00 0.00 0.00 61 1014.1
20260903053318 67 257 0.0 0.0 0.00 0.00 0.00 61 1014.1
20260903052826 67 258 0.0 0.0 0.00 0.00 0.00 61 1014.1
20260903052319 67 258 0.0 0.0 0.00 0.00 0.00 60 1014.2
20260903051827 67 258 0.0 0.0 0.00 0.00 0.00 59 1014.1
20260903051317 67 258 0.0 0.0 0.00 0.00 0.00 59 1014.0
20260903050826 68 257 0.0 0.0 0.00 0.00 0.00 58 1014.0
20260903050335 68 258 0.0 0.0 0.00 0.00 0.00 58 1014.1
20260903045823 68 258 0.0 0.0 0.00 0.00 0.00 57 1014.1
20260903045335 68 258 0.0 0.0 0.00 0.00 0.00 57 1014.1
20260903044822 68 258 0.0 0.0 0.00 0.00 0.00 56 1014.1
20260903044332 69 258 0.0 0.0 0.00 0.00 0.00 56 1014.1
20260903043826 69 258 0.0 0.0 0.00 0.00 0.00 55 1014.1
20260903043335 69 257 0.0 0.0 0.00 0.00 0.00 56 1014.1
20260903042823 69 257 0.0 0.0 0.00 0.00 0.00 55 1014.0
20260903042332 70 258 0.0 0.0 0.00 0.00 0.00 54 1014.0
20260903041823 70 258 0.0 0.0 0.00 0.00 0.00 55 1013.9
20260903041333 70 258 0.0 0.0 0.00 0.00 0.00 54 1013.8
20260903040825 70 258 0.0 0.0 0.00 0.00 0.00 53 1013.7
20260903040334 70 258 0.0 0.0 0.00 0.00 0.00 53 1013.7
20260903035822 70 257 0.0 0.0 0.00 0.00 0.00 53 1013.5
20260903035335 71 257 0.0 0.0 0.00 0.00 0.00 52 1013.4
20260903034822 71 258 0.0 0.0 0.00 0.00 0.00 52 1013.3
20260903034331 71 257 0.0 0.0 0.00 0.00 0.00 52 1013.3
20260903033818 71 258 0.0 0.0 0.00 0.00 0.00 51 1013.3
20260903033326 71 257 0.0 0.0 0.00 0.00 0.00 52 1013.2
20260903032834 72 258 0.0 0.0 0.00 0.00 0.00 51 1013.2
20260903032324 72 258 0.0 0.0 0.00 0.00 0.00 51 1013.1
20260903031832 72 257 0.0 0.0 0.00 0.00 0.00 51 1013.1
20260903031324 72 257 0.0 0.0 0.00 0.00 0.00 51 1013.0
20260903030817 72 257 0.0 0.0 0.00 0.00 0.00 51 1013.1
20260903030327 73 258 0.0 0.0 0.00 0.00 0.00 52 1013.1
20260903025835 73 257 0.0 0.0 0.00 0.00 0.00 51 1013.0
20260903025324 73 258 0.0 0.0 0.00 0.00 0.00 51 1013.1
20260903024832 73 257 0.0 0.0 0.00 0.00 0.00 51 1013.1
20260903024321 74 257 0.0 0.0 0.00 0.00 0.00 51 1013.2
20260903023830 74 258 0.0 0.0 0.00 0.00 0.00 51 1013.2
20260903023319 74 257 0.0 0.0 0.00 0.00 0.00 51 1013.3
20260903022827 75 258 0.0 0.0 0.00 0.00 0.00 51 1013.3
20260903022320 75 258 0.0 0.0 0.00 0.00 0.00 50 1013.2
20260903021828 75 257 0.0 0.0 0.00 0.00 0.00 50 1013.2
20260903021318 76 273 0.0 0.0 0.00 0.00 0.00 50 1013.1
20260903020826 76 273 0.0 0.0 0.00 0.00 0.00 50 1013.1
20260903020315 76 273 0.0 0.0 0.00 0.00 0.00 49 1013.1
20260903015825 76 273 0.0 0.0 0.00 0.00 0.00 49 1013.2
20260903015333 76 273 0.0 0.0 0.00 0.00 0.00 49 1013.3
20260903014821 77 217 0.0 0.0 0.00 0.00 0.00 49 1013.3
20260903014331 77 271 0.0 0.0 0.00 0.00 0.00 48 1013.3
20260903013823 78 256 0.0 0.0 0.00 0.00 0.00 48 1013.3
20260903013335 78 257 0.0 0.0 0.00 0.00 0.00 47 1013.4
20260903012823 78 256 0.0 0.0 0.00 0.00 0.00 47 1013.4
20260903012333 79 245 0.0 0.0 0.00 0.00 0.00 46 1013.4
20260903011825 79 198 0.0 0.0 0.00 0.00 0.00 45 1013.4
20260903011334 79 263 0.0 0.0 0.00 0.00 0.00 45 1013.4
20260903010822 79 298 0.0 0.0 0.00 0.00 0.00 45 1013.3
20260903010334 80 266 0.0 0.0 0.00 0.00 0.00 45 1013.4
20260903005826 80 268 0.0 0.0 0.00 0.00 0.00 45 1013.4
20260903005336 80 248 0.0 0.0 0.00 0.00 0.00 45 1013.4
20260903004824 80 245 0.0 0.0 0.00 0.00 0.00 44 1013.4
20260903004334 80 244 0.0 0.0 0.00 0.00 0.00 45 1013.5
20260903003821 80 244 0.0 0.0 0.00 0.00 0.00 44 1013.5
20260903003331 81 237 0.0 0.0 0.00 0.00 0.00 44 1013.6
20260903002817 81 197 0.0 0.0 0.00 0.00 0.00 44 1013.5
20260903002326 80 252 0.0 0.0 0.00 0.00 0.00 44 1013.5
20260903001816 80 241 0.0 0.0 0.00 0.00 0.00 44 1013.6
20260903001333 80 294 0.0 0.0 0.00 0.00 0.00 45 1013.6
20260903000821 80 285 0.0 0.0 0.00 0.00 0.00 46 1013.5
20260903000332 79 224 0.0 0.0 0.00 0.00 0.00 46 1013.7
20260902235819 80 223 0.0 0.0 0.00 0.00 0.00 46 1013.7
20260902235332 79 272 0.0 0.0 0.00 0.00 0.00 46 1013.7
20260902234820 79 210 0.0 0.0 0.00 0.00 0.00 46 1013.8
20260902234333 79 347 0.0 0.0 0.00 0.00 0.00 46 1013.8
20260902233822 80 222 0.0 0.0 0.00 0.00 0.00 46 1013.8
20260902233331 80 273 0.0 0.0 0.00 0.00 0.00 47 1013.9
20260902232823 80 344 0.0 0.0 0.00 0.00 0.00 46 1013.9
20260902232334 80 280 0.0 0.0 0.00 0.00 0.00 46 1013.9
20260902231824 80 259 0.0 0.0 0.00 0.00 0.00 46 1014.0
20260902231334 80 236 0.0 0.0 0.00 0.00 0.00 46 1014.0
20260902230824 80 226 0.0 0.0 0.00 0.00 0.00 46 1014.0
20260902230316 80 259 0.0 0.0 0.00 0.00 0.00 46 1014.0
20260902225828 80 271 0.0 0.0 0.00 0.00 0.00 46 1014.1
20260902225318 79 211 0.0 0.0 0.00 0.00 0.00 46 1014.1
20260902224830 79 244 0.0 0.0 0.00 0.00 0.00 46 1014.1
20260902224322 79 228 0.0 0.0 0.00 0.00 0.00 45 1014.2
20260902223834 79 226 0.0 0.0 0.00 0.00 0.00 46 1014.2
20260902223324 79 266 0.0 0.0 0.00 0.00 0.00 46 1014.2
20260902222832 79 283 0.0 0.0 0.00 0.00 0.00 46 1014.2
20260902222325 78 221 0.0 0.0 0.00 0.00 0.00 47 1014.2
20260902221833 78 206 0.0 0.0 0.00 0.00 0.00 46 1014.3
20260902221323 79 202 0.0 0.0 0.00 0.00 0.00 46 1014.3
20260902220816 79 191 0.0 0.0 0.00 0.00 0.00 46 1014.4
20260902220328 79 140 0.0 0.0 0.00 0.00 0.00 45 1014.5
20260902215836 79 140 0.0 0.0 0.00 0.00 0.00 45 1014.5
20260902215325 79 281 0.0 0.0 0.00 0.00 0.00 46 1014.5
20260902214834 79 258 0.0 0.0 0.00 0.00 0.00 46 1014.6
20260902214324 78 263 0.0 0.0 0.00 0.00 0.00 46 1014.7
20260902213832 78 276 0.0 0.0 0.00 0.00 0.00 46 1014.7
20260902213324 79 284 0.0 0.0 0.00 0.00 0.00 46 1014.8
20260902212832 79 261 0.0 0.0 0.00 0.00 0.00 46 1014.8
20260902212325 79 261 0.0 0.0 0.00 0.00 0.00 46 1014.8
20260902211833 79 262 0.0 0.0 0.00 0.00 0.00 46 1014.9
20260902211323 79 248 0.0 0.0 0.00 0.00 0.00 47 1014.8
20260902210831 78 213 0.0 0.0 0.00 0.00 0.00 47 1015.0
20260902210321 78 312 0.0 0.0 0.00 0.00 0.00 46 1015.0
20260902205829 78 298 0.0 0.0 0.00 0.00 0.00 47 1015.1
20260902205321 78 273 0.0 0.0 0.00 0.00 0.00 46 1015.1
20260902204833 78 255 0.0 0.0 0.00 0.00 0.00 47 1015.1
20260902204321 78 215 0.0 0.0 0.00 0.00 0.00 47 1015.1
20260902203836 78 244 0.0 0.0 0.00 0.00 0.00 48 1015.2
20260902203325 77 180 0.0 0.0 0.00 0.00 0.00 49 1015.2
20260902202832 77 196 0.0 0.0 0.00 0.00 0.00 49 1015.4
20260902202321 77 257 0.0 0.0 0.00 0.00 0.00 49 1015.4
20260902201829 77 231 0.0 0.0 0.00 0.00 0.00 50 1015.4
20260902201317 77 208 0.0 0.0 0.00 0.00 0.00 49 1015.4
20260902200828 77 275 0.0 0.0 0.00 0.00 0.00 49 1015.4
20260902200317 77 248 0.0 0.0 0.00 0.00 0.00 49 1015.5
20260902195826 77 236 0.0 0.0 0.00 0.00 0.00 49 1015.5
20260902195320 77 209 0.0 0.0 0.00 0.00 0.00 50 1015.5
20260902194828 77 208 0.0 0.0 0.00 0.00 0.00 51 1015.6
20260902194318 77 248 0.0 0.0 0.00 0.00 0.00 50 1015.6
20260902193827 77 251 0.0 0.0 0.00 0.00 0.00 51 1015.5
20260902193336 77 267 0.0 0.0 0.00 0.00 0.00 51 1015.5
20260902192824 77 195 0.0 0.0 0.00 0.00 0.00 49 1015.7
20260902192317 77 185 0.0 0.0 0.00 0.00 0.00 49 1015.9
20260902191826 77 173 0.0 0.0 0.00 0.00 0.00 50 1016.0
20260902191320 77 125 0.0 0.0 0.00 0.00 0.00 51 1015.9
20260902190829 76 196 0.0 0.0 0.00 0.00 0.00 51 1015.9
20260902190319 76 218 0.0 0.0 0.00 0.00 0.00 53 1015.9
20260902185827 75 232 0.0 0.0 0.00 0.00 0.00 53 1015.9
20260902185320 75 232 0.0 0.0 0.00 0.00 0.00 53 1016.1
20260902184825 75 232 0.0 0.0 0.00 0.00 0.00 54 1016.2
20260902184334 75 262 0.0 0.0 0.00 0.00 0.00 53 1016.1
20260902183821 75 268 0.0 0.0 0.00 0.00 0.00 53 1016.2
20260902183331 75 275 0.0 0.0 0.00 0.00 0.00 52 1016.2
20260902182822 75 162 0.0 0.0 0.00 0.00 0.00 52 1016.1
20260902182332 75 188 0.0 0.0 0.00 0.00 0.00 53 1016.2
20260902181822 74 198 0.0 0.0 0.00 0.00 0.00 55 1016.2
20260902181331 74 208 0.0 0.0 0.00 0.00 0.00 55 1016.2
20260902180819 74 207 0.0 0.0 0.00 0.00 0.00 55 1016.2
20260902180328 74 205 0.0 0.0 0.00 0.00 0.00 56 1016.1
20260902175818 74 209 0.0 0.0 0.00 0.00 0.00 55 1016.1
20260902175327 73 207 0.0 0.0 0.00 0.00 0.00 57 1016.2
20260902174836 73 202 0.0 0.0 0.00 0.00 0.00 57 1016.1
20260902174330 73 202 0.0 0.0 0.00 0.00 0.00 57 1016.2
20260902173818 73 203 0.0 0.0 0.00 0.00 0.00 57 1016.1
20260902173328 73 202 0.0 0.0 0.00 0.00 0.00 57 1016.2
20260902172836 72 153 0.0 0.0 0.00 0.00 0.00 59 1016.2
20260902172326 72 192 0.0 0.0 0.00 0.00 0.00 60 1016.1
20260902171833 72 192 0.0 0.0 0.00 0.00 0.00 60 1016.1
20260902171323 72 190 0.0 0.0 0.00 0.00 0.00 60 1016.1
20260902170831 71 159 0.0 0.0 0.00 0.00 0.00 60 1016.2
20260902170321 71 159 0.0 0.0 0.00 0.00 0.00 62 1016.2
20260902165833 70 155 0.0 0.0 0.00 0.00 0.00 62 1016.1
20260902165323 70 155 0.0 0.0 0.00 0.00 0.00 63 1016.0
20260902164832 69 155 0.0 0.0 0.00 0.00 0.00 64 1016.0
20260902164322 69 135 0.0 0.0 0.00 0.00 0.00 65 1015.9
20260902163830 69 136 0.0 0.0 0.00 0.00 0.00 65 1015.9
20260902163322 68 130 0.0 0.0 0.00 0.00 0.00 66 1015.8
20260902162830 68 123 0.0 0.0 0.00 0.00 0.00 67 1015.9
20260902162319 68 123 0.0 0.0 0.00 0.00 0.00 67 1015.9
20260902161829 67 122 0.0 0.0 0.00 0.00 0.00 68 1015.9
20260902161323 67 122 0.0 0.0 0.00 0.00 0.00 69 1016.0
20260902160832 66 123 0.0 0.0 0.00 0.00 0.00 70 1015.9
20260902160322 66 124 0.0 0.0 0.00 0.00 0.00 71 1016.1
20260902155830 65 125 0.0 0.0 0.00 0.00 0.00 71 1016.1
20260902155319 65 125 0.0 0.0 0.00 0.00 0.00 71 1016.1
20260902154826 65 126 0.0 0.0 0.00 0.00 0.00 72 1016.2
20260902154318 64 115 0.0 0.0 0.00 0.00 0.00 73 1016.2